Regional Weather Roundup
Issued by NWS

Home | Current Version | Previous Version | Text Only | Print | Product List | Glossary Off
Versions: 1 2 3 4 5 6 7 8 9 10 11 12 13 14 15 16 17 18 19 20 21 22 23 24 25 26 27 28 29 30 31 32 33 34 35 36 37 38 39 40 41 42 43 44 45 46 47 48 49 50

313
ASUS45 KPSR 281410
RWRAZ

ARIZONA REGIONAL HOURLY WEATHER ROUNDUP
NATIONAL WEATHER SERVICE TUCSON AZ
700 AM MST SUN MAY 28 2017

NOTE: FAIR INDICATES FEW OR NO CLOUDS BELOW 12,000 FEET WITH NO
SIGNIFICANT WEATHER AND/OR OBSTRUCTIONS TO VISIBILITY.

AZZ001>003-036-281500-
NORTHWEST ARIZONA

CITY           SKY/WX    TMP DP  RH WIND       PRES   REMARKS
BULLHEAD CITY  SUNNY     84  27  12 N17G24    29.91R
KINGMAN        SUNNY     70  25  18 E7        30.08R
$$

AZZ004>008-015-016-018-281500-
NORTH CENTRAL ARIZONA

CITY           SKY/WX    TMP DP  RH WIND       PRES   REMARKS
GRAND CANYON   SUNNY     59  23  25 E13G20    30.28R
WILLIAMS       SUNNY     54  30  40 SE5       30.25R
PRESCOTT       SUNNY     58  32  37 S5        30.15R
FLAGSTAFF      SUNNY     57  24  28 E10       30.28R
PAYSON         SUNNY     66  27  22 NE7       30.17R
PAGE           SUNNY     67  28  23 VRB3      30.19R
$$

AZZ009>014-017-281500-
NORTHEAST ARIZONA

CITY           SKY/WX    TMP DP  RH WIND       PRES   REMARKS
WINSLOW        SUNNY     58  26  29 CALM      30.21R
SAINT JOHNS    SUNNY     54  21  27 SE3       30.21R
WINDOW ROCK    SUNNY     50  23  34 CALM      30.30R
SHOW LOW       SUNNY     50  21  32 N3        30.23R
$$

AZZ023-281500-
GREATER PHOENIX AREA

CITY           SKY/WX    TMP DP  RH WIND       PRES   REMARKS
PHOENIX        MOSUNNY   75  30  19 E7        29.89R
BUCKEYE        SUNNY     77  25  14 N7        29.90R
GLENDALE       SUNNY     73  32  21 CALM      29.92
LUKE AFB       SUNNY     73  35  24 CALM      29.90R
DEER VALLEY    SUNNY     75  30  19 SE3       29.91R
SCOTTSDALE     SUNNY     71  42  35 CALM      29.93R
MESA-FALCON    SUNNY     75  37  25 CALM      29.93R
MESA-GATEWAY   MOSUNNY   72  32  23 SE8       29.93R
CHANDLER       SUNNY     70  37  30 CALM      29.91R
$$

AZZ027-028-281500-
SOUTHWEST MARICOPA COUNTY AND PINAL COUNTY

CITY           SKY/WX    TMP DP  RH WIND       PRES   REMARKS
CASA GRANDE    SUNNY     70  28  21 N3        29.93R
$$

AZZ503-504-507>509-281500-
SOUTHEAST ARIZONA

CITY           SKY/WX    TMP DP  RH WIND       PRES   REMARKS
TUCSON         SUNNY     67  22  18 S7        30.02R
DAVIS-MONTHAN  SUNNY     70  20  15 SE6       30.01R
RYAN FIELD     SUNNY     66  23  19 CALM      30.01R
NOGALES        SUNNY     61  22  22 CALM      30.07R
SIERRA VISTA   SUNNY     71  17  12 CALM      30.13R
DOUGLAS        SUNNY     61  12  14 CALM      30.10R
SAFFORD        SUNNY     67  14  13 CALM      30.03R
$$

AZZ020-021-025-026-031-281500-
SOUTHWEST ARIZONA

CITY           SKY/WX    TMP DP  RH WIND       PRES   REMARKS
YUMA           SUNNY     71  47  42 S5        29.87R
$$

CAZ031-033-041-043-047-048-061-281500-
SOUTHERN CALIFORNIA

CITY           SKY/WX    TMP DP  RH WIND       PRES   REMARKS
DOWNTOWN L.A.  SUNNY     61  55  81 CALM      30.02R
L.A. AIRPORT   MOSUNNY   60  57  89 SE6       30.02R
SAN DIEGO      PTSUNNY   60  54  80 N5        30.04R
BURBANK        SUNNY     58  48  69 CALM      30.02R
ONTARIO        SUNNY     59  51  75 CALM      30.02R
RIVERSIDE      SUNNY     56  52  86 CALM      30.02R
PALM SPRINGS   SUNNY     71  52  50 CALM      29.91R
EL CENTRO NAS  SUNNY     69  33  26 NW3       29.88R
IMPERIAL       SUNNY     71  42  35 S3        29.86R
BLYTHE         SUNNY     70  31  23 N5        29.89R
NEEDLES        SUNNY     83  24  11 VRB5      29.93R
$$

NVZ020-UTZ003-281500-
SOUTHERN NEVADA-UTAH

CITY           SKY/WX    TMP DP  RH WIND       PRES   REMARKS
LAS VEGAS      SUNNY     76  22  13 E6        30.03R
SALT LAKE CITY SUNNY     60  39  45 SE7       30.25R
$$

NMZ009-TXZ055-281500-
NEW MEXICO-WEST TEXAS

CITY           SKY/WX    TMP DP  RH WIND       PRES   REMARKS
ALBUQUERQUE    MOSUNNY   60  39  45 E24       30.26R
EL PASO        PTSUNNY   68  38  33 N12       30.14R
$$


........................KEY........................
SKY/WX - SKY CONDITION/WEATHER
TMP    - TEMPERATURE IN FAHRENHEIT
DP     - DEWPOINT IN FAHRENHEIT
RH     - RELATIVE HUMIDITY IN PERCENT
WIND   - DIRECTION AND SPEED IN MILES PER HOUR (MPH)
VRB    - VARIABLE WIND DIRECTION
PRES   - MEAN SEA LEVEL PRESSURE IN INCHES OF MERCURY
         F - FALLING PRESSURE   R - RISING PRESSURE
         S - STEADY PRESSURE
VSB    - VISIBILITY IN MILES
HX     - HEAT INDEX IN FAHRENHEIT
WCI    - WIND CHILL INDEX IN FAHRENHEIT
TC     - TEMPERATURE IN CELSIUS WHICH IS ALSO KNOWN AS
         TEMPERATURE IN CENTIGRADE
AFB    - AIR FORCE BASE
         LUKE AFB IS LUKE AIR FORCE BASE
         DAVIS-MONTHAN IS DAVIS-MONTHAN AIR FORCE BASE
NAS    - NAVAL AIR STATION
         EL CENTRO NAS IS EL CENTRO NAVAL AIR STATION
N/A    - NOT AVAILABLE





USA.gov is the U.S. government's official web portal to all federal, state and local government web resources and services.